Tributaries of Elbe river

river Ploučnice - water gauge Benešov nad Ploučnicí

Date and time (UTC) H (cm) Q (m3/s)
19. 4. 2019 23:00 80 5
19. 4. 2019 22:00 79 5
19. 4. 2019 21:00 80 5
19. 4. 2019 20:00 79 5
19. 4. 2019 19:00 80 5
19. 4. 2019 18:00 79 5
19. 4. 2019 17:00 79 5
19. 4. 2019 16:00 80 5
19. 4. 2019 15:00 80 5
19. 4. 2019 14:00 79 5
19. 4. 2019 13:00 80 5
19. 4. 2019 12:00 79 5
19. 4. 2019 11:00 79 5

H - vodni stav, Q - discharge

river Ohře - water gauge Louny

Date and time (UTC) H (cm) Q (m3/s)
19. 4. 2019 23:00 221 35
19. 4. 2019 22:00 220 34
19. 4. 2019 21:00 220 34
19. 4. 2019 20:00 219 34
19. 4. 2019 19:00 218 33
19. 4. 2019 18:00 218 33
19. 4. 2019 17:00 219 34
19. 4. 2019 16:00 220 34
19. 4. 2019 15:00 221 35
19. 4. 2019 14:00 221 35
19. 4. 2019 13:00 222 36
19. 4. 2019 12:00 221 35
19. 4. 2019 11:00 222 36

H - vodni stav, Q - discharge

Praha-Chuchle

Date and time (UTC) H (cm) Q (m3/s)
19. 4. 2019 23:00 51 68
19. 4. 2019 22:00 50 65
19. 4. 2019 21:00 50 65
19. 4. 2019 20:00 50 65
19. 4. 2019 19:00 50 65
19. 4. 2019 18:00 50 65
19. 4. 2019 17:00 50 65
19. 4. 2019 16:00 51 68
19. 4. 2019 15:00 51 68
19. 4. 2019 14:00 51 68
19. 4. 2019 13:00 53 75
19. 4. 2019 12:00 56 87
19. 4. 2019 11:00 58 95

H - vodni stav, Q - discharge
more information

river Jizera - water gauge Předměřice

Date and time (UTC) H (cm) Q (m3/s)
19. 4. 2019 23:00 179 28
19. 4. 2019 22:00 178 27
19. 4. 2019 21:00 176 26
19. 4. 2019 20:00 176 26
19. 4. 2019 19:00 175 26
19. 4. 2019 18:00 172 24
19. 4. 2019 17:00 173 25
19. 4. 2019 16:00 172 24
19. 4. 2019 15:00 171 24
19. 4. 2019 14:00 168 23
19. 4. 2019 13:00 162 20
19. 4. 2019 12:00 160 20
19. 4. 2019 11:00 163 21

H - vodni stav, Q - discharge

river Cidlina - water gauge Sány

Date and time (UTC) H (cm) Q (m3/s)
19. 4. 2019 22:40 20 1
19. 4. 2019 22:00 20 1
19. 4. 2019 21:00 21 1
19. 4. 2019 20:00 21 1
19. 4. 2019 19:00 21 1
19. 4. 2019 18:00 22 1
19. 4. 2019 17:00 22 1
19. 4. 2019 16:00 23 1
19. 4. 2019 15:00 24 1
19. 4. 2019 14:00 25 1
19. 4. 2019 13:00 23 1
19. 4. 2019 12:00 21 1
19. 4. 2019 11:00 20 1
19. 4. 2019 10:00 19 1

H - vodni stav, Q - discharge

river Orlice - water gauge Týniště nad Orlicí

Date and time (UTC) H (cm) Q (m3/s)
19. 4. 2019 23:00 81 9
19. 4. 2019 22:00 80 9
19. 4. 2019 21:00 78 8
19. 4. 2019 20:00 76 8
19. 4. 2019 19:00 78 8
19. 4. 2019 18:00 78 8
19. 4. 2019 17:00 77 8
19. 4. 2019 16:00 77 8
19. 4. 2019 15:00 77 8
19. 4. 2019 14:00 79 9
19. 4. 2019 13:00 79 9
19. 4. 2019 12:00 78 8
19. 4. 2019 11:00 77 8

H - vodni stav, Q - discharge
Source data
Labe Basin Vltava Basin ČHMÚ